Flag for U.S.A. Weather past 2 weeks in Boston, Massachusetts, U.S.A.

Now
34 °F

Overcast.


Feels Like: 30 °F
Forecast: 33 / 41 °F
Wind: 5 mph from North

Location: Logan International Airport

Current Time: Dec 21, 2014 at 7:15:52 PM

Latest Report: Dec 21, 2014 at 6:54 PM


Visibility: 10 mi

Pressure: 30.35 "Hg

Humidity: 79%

Dew point: 28 °F

Location of BostonLocation

Historic Weather in Boston — Graph

°F

Boston temperature yesterday

Maximum temperature yesterday: 35 °F (at 7:54 PM)
Minimum temperature yesterday: 27 °F (at 6:54 AM)
Average temperature yesterday: 32 °F

Past Weeks' High & Low Weather Summary

 TemperatureHumidityPressure
High49 °F (Dec 9, 6:54 PM)100% (Dec 9, 9:54 PM)30.76 "Hg (Dec 9, 9:54 PM)
Low18 °F (Dec 8, 5:54 AM)28% (Dec 7, 7:54 PM)29.43 "Hg (Dec 10, 9:54 PM)
Average36 °F77%29.99 "Hg
* Reported Dec 6 5:54 PM — Dec 21 5:54 PM, Boston, Weather by CustomWeather, © 2014

Note: Actual official high and low records may vary slightly from our data, if they occured in-between our weather recording intervals... More about our weather records

Advertising

Boston weather history for previous 24 hours

 ConditionsComfort  
Time TempWeatherWind HumidityBarometerVisibility
5:54 PM
Dec 21
34 °FOvercast.7 mph79%30.33 "Hg10 mi
4:54 PM34 °FLight snow. Mostly cloudy.8 mph79%30.32 "Hg9 mi
3:54 PM34 °FLight snow. Overcast.9 mph82%30.31 "Hg7 mi
2:54 PM33 °FLight snow. Fog.8 mph85%30.31 "Hg6 mi
1:54 PM33 °FOvercast.8 mph78%30.30 "Hg10 mi
12:54 PM32 °FLight snow. Overcast.7 mph79%30.30 "Hg9 mi
11:54 AM32 °FLight snow. Overcast.7 mph75%30.31 "Hg9 mi
10:54 AM31 °FOvercast.7 mph79%30.33 "Hg9 mi
9:54 AM30 °FOvercast.9 mph82%30.34 "Hg10 mi
8:54 AM30 °FLight snow. Overcast.13 mph82%30.32 "Hg9 mi
7:54 AM30 °FOvercast.10 mph85%30.32 "Hg10 mi
6:54 AM31 °FLight snow. Overcast.12 mph85%30.31 "Hg9 mi
5:54 AM32 °FLight snow. Overcast.13 mph85%30.30 "Hg9 mi
4:54 AM32 °FLight snow. Overcast.10 mph85%30.29 "Hg9 mi
3:54 AM35 °FLight snow. Overcast.14 mph82%30.28 "Hg9 mi
2:54 AM35 °FLight snow. Overcast.12 mph82%30.29 "Hg9 mi
1:54 AM35 °FMostly cloudy.14 mph82%30.28 "Hg10 mi
12:54 AM35 °FMostly cloudy.15 mph78%30.28 "Hg10 mi
11:54 PM
Dec 20
35 °FOvercast.13 mph75%30.29 "Hg10 mi
10:54 PM35 °FLight snow. Overcast.7 mph72%30.30 "Hg9 mi
9:54 PM35 °FOvercast.10 mph75%30.29 "Hg10 mi
8:54 PM35 °FOvercast.20 mph78%30.29 "Hg10 mi
7:54 PM35 °FLight snow. Mostly cloudy.13 mph78%30.31 "Hg9 mi
Weather by CustomWeather, © 2014

See weather overviewHow to use our weather pages